DW6344 Weather Reports


Display with metric or nautical units.
time (UTC)temp
F
wind
direction
speed
MPH
gust
MPH
rain 1hr
in
rain 24hr
in
rain mn
in
humidity
%
barometer
mb
20260506043830 67 182 1.0 5.0 0.00 0.00 0.00 65 1012.1
20260506043409 68 59 1.0 5.0 0.00 0.00 0.00 65 1012.1
20260506042843 68 331 1.0 5.0 0.00 0.00 0.00 65 1012.1
20260506042347 68 51 1.0 4.0 0.00 0.00 0.00 64 1012.1
20260506041851 68 128 1.0 4.0 0.00 0.00 0.00 64 1012.0
20260506041347 68 346 1.0 4.0 0.00 0.00 0.00 64 1012.1
20260506040846 68 86 1.0 8.0 0.00 0.00 0.00 64 1012.1
20260506040403 68 86 1.0 8.0 0.00 0.00 0.00 64 1012.1
20260506035848 69 190 1.0 4.0 0.00 0.00 0.00 63 1012.1
20260506035351 69 113 1.0 5.0 0.00 0.00 0.00 63 1012.1
20260506034858 69 17 1.0 5.0 0.00 0.00 0.00 63 1012.1
20260506034358 69 19 1.0 4.0 0.00 0.00 0.00 63 1012.0
20260506033833 69 5 1.0 5.0 0.00 0.00 0.00 62 1011.9
20260506033336 69 28 1.0 5.0 0.00 0.00 0.00 62 1012.0
20260506032829 70 15 0.0 7.0 0.00 0.00 0.00 62 1012.0
20260506032408 70 33 2.0 7.0 0.00 0.00 0.00 62 1012.0
20260506031908 70 51 1.0 7.0 0.00 0.00 0.00 61 1012.0
20260506031403 70 74 1.0 6.0 0.00 0.00 0.00 61 1012.0
20260506030839 70 340 1.0 6.0 0.00 0.00 0.00 61 1012.0
20260506030419 70 55 1.0 7.0 0.00 0.00 0.00 61 1012.0
20260506025832 71 55 1.0 7.0 0.00 0.00 0.00 60 1012.0
20260506025354 71 67 1.0 7.0 0.00 0.00 0.00 60 1012.0
20260506024906 71 42 1.0 7.0 0.00 0.00 0.00 59 1012.0
20260506024346 71 15 1.0 6.0 0.00 0.00 0.00 59 1011.9
20260506023901 71 65 2.0 6.0 0.00 0.00 0.00 58 1012.0
20260506023337 72 72 1.0 6.0 0.00 0.00 0.00 58 1012.0
20260506022831 72 217 1.0 6.0 0.00 0.00 0.00 58 1012.0
20260506022350 72 92 1.0 6.0 0.00 0.00 0.00 57 1011.9
20260506021849 72 113 1.0 5.0 0.00 0.00 0.00 56 1011.8
20260506021345 72 90 1.0 5.0 0.00 0.00 0.00 56 1011.8
20260506020835 73 70 2.0 5.0 0.00 0.00 0.00 56 1011.7
20260506020345 73 152 1.0 4.0 0.00 0.00 0.00 55 1011.6
20260506015851 73 58 0.0 4.0 0.00 0.00 0.00 54 1011.4
20260506015340 73 304 1.0 6.0 0.00 0.00 0.00 53 1011.3
20260506014842 73 44 1.0 7.0 0.00 0.00 0.00 53 1011.3
20260506014354 73 28 1.0 7.0 0.00 0.00 0.00 53 1011.3
20260506013829 73 58 1.0 8.0 0.00 0.00 0.00 52 1011.3
20260506013401 73 70 1.0 4.0 0.00 0.00 0.00 52 1011.1
20260506012838 73 360 0.0 3.0 0.00 0.00 0.00 52 1011.2
20260506012339 74 40 0.0 6.0 0.00 0.00 0.00 51 1011.2
20260506011857 74 40 1.0 6.0 0.00 0.00 0.00 51 1011.1
20260506011331 74 68 0.0 3.0 0.00 0.00 0.00 50 1011.2
20260506010829 74 109 1.0 3.0 0.00 0.00 0.00 49 1011.1
20260506010333 74 86 1.0 3.0 0.00 0.00 0.00 49 1011.1
20260506005831 74 59 0.0 4.0 0.00 0.00 0.00 48 1011.0
20260506005400 74 57 0.0 4.0 0.00 0.00 0.00 48 1010.8
20260506004838 74 125 0.0 4.0 0.00 0.00 0.00 48 1010.6
20260506004342 75 63 0.0 4.0 0.00 0.00 0.00 47 1010.6
20260506003839 75 88 0.0 2.0 0.00 0.00 0.00 46 1010.6
20260506003333 75 88 0.0 2.0 0.00 0.00 0.00 47 1010.6
20260506002828 75 32 0.0 2.0 0.00 0.00 0.00 46 1010.5
20260506002400 75 32 0.0 2.0 0.00 0.00 0.00 46 1010.6
20260506001859 75 28 0.0 3.0 0.00 0.00 0.00 45 1010.6
20260506001354 76 60 0.0 3.0 0.00 0.00 0.00 45 1010.5
20260506000905 76 74 0.0 3.0 0.00 0.00 0.00 45 1010.4
20260506000344 76 59 0.0 2.0 0.00 0.00 0.00 44 1010.5
20260505235855 76 18 0.0 2.0 0.00 0.00 0.00 44 1010.4
20260505235341 77 78 0.0 3.0 0.00 0.00 0.00 43 1010.3
20260505234855 77 104 0.0 4.0 0.00 0.00 0.00 43 1010.3
20260505234334 77 252 1.0 4.0 0.00 0.00 0.00 42 1010.4
20260505233834 77 33 0.0 7.0 0.00 0.00 0.00 42 1010.3
20260505233350 78 53 1.0 5.0 0.00 0.00 0.00 41 1010.3
20260505232906 78 82 2.0 4.0 0.00 0.00 0.00 42 1010.4
20260505232330 78 68 1.0 7.0 0.00 0.00 0.00 41 1010.4
20260505231838 78 306 1.0 7.0 0.00 0.00 0.00 41 1010.2
20260505231336 79 59 2.0 8.0 0.00 0.00 0.00 40 1010.4
20260505230834 79 40 1.0 8.0 0.00 0.00 0.00 39 1010.3
20260505230339 79 142 1.0 8.0 0.00 0.00 0.00 40 1010.2
20260505225848 79 20 2.0 7.0 0.00 0.00 0.00 40 1010.3
20260505225347 80 175 2.0 7.0 0.00 0.00 0.00 39 1010.2
20260505224848 80 360 0.0 5.0 0.00 0.00 0.00 39 1010.1
20260505224353 80 94 1.0 5.0 0.00 0.00 0.00 39 1010.1
20260505223906 80 239 1.0 5.0 0.00 0.00 0.00 37 1010.1
20260505223347 80 240 1.0 5.0 0.00 0.00 0.00 37 1010.1
20260505222841 80 43 2.0 8.0 0.00 0.00 0.00 36 1010.0
20260505222345 80 103 2.0 8.0 0.00 0.00 0.00 35 1010.1
20260505221905 80 355 2.0 6.0 0.00 0.00 0.00 34 1010.0
20260505221330 80 349 1.0 9.0 0.00 0.00 0.00 34 1010.0
20260505220840 81 100 2.0 7.0 0.00 0.00 0.00 34 1010.0
20260505220345 81 63 2.0 7.0 0.00 0.00 0.00 33 1010.0
20260505215841 82 338 2.0 7.0 0.00 0.00 0.00 33 1010.1
20260505215355 82 28 2.0 5.0 0.00 0.00 0.00 33 1010.1
20260505214852 83 100 1.0 5.0 0.00 0.00 0.00 32 1010.0
20260505214326 83 94 2.0 5.0 0.00 0.00 0.00 32 1010.0
20260505213842 83 288 1.0 5.0 0.00 0.00 0.00 32 1010.1
20260505213351 83 281 2.0 7.0 0.00 0.00 0.00 32 1010.0
20260505212857 83 324 2.0 7.0 0.00 0.00 0.00 31 1009.9
20260505212342 83 141 2.0 6.0 0.00 0.00 0.00 31 1009.9
20260505211834 83 340 2.0 5.0 0.00 0.00 0.00 31 1009.9
20260505211340 84 19 1.0 5.0 0.00 0.00 0.00 31 1009.8
20260505210836 84 88 1.0 5.0 0.00 0.00 0.00 29 1009.8
20260505210415 85 20 2.0 7.0 0.00 0.00 0.00 29 1009.7
20260505205847 85 9 2.0 7.0 0.00 0.00 0.00 28 1009.7
20260505205404 86 287 1.0 7.0 0.00 0.00 0.00 28 1009.7
20260505204826 86 53 2.0 7.0 0.00 0.00 0.00 27 1009.7
20260505204403 86 299 1.0 7.0 0.00 0.00 0.00 29 1009.7
20260505203846 87 41 2.0 7.0 0.00 0.00 0.00 28 1009.8
20260505203355 87 56 1.0 6.0 0.00 0.00 0.00 28 1009.8
20260505202852 88 242 2.0 6.0 0.00 0.00 0.00 27 1010.0
20260505202330 88 24 2.0 9.0 0.00 0.00 0.00 27 1010.0
20260505201849 88 360 2.0 9.0 0.00 0.00 0.00 26 1009.9
20260505201339 88 65 1.0 5.0 0.00 0.00 0.00 27 1010.0
20260505200825 88 9 1.0 10.0 0.00 0.00 0.00 26 1010.0
20260505200340 88 124 1.0 7.0 0.00 0.00 0.00 26 1010.0
20260505195837 88 211 1.0 7.0 0.00 0.00 0.00 26 1010.2
20260505195338 88 78 2.0 7.0 0.00 0.00 0.00 26 1010.2
20260505194911 88 333 2.0 6.0 0.00 0.00 0.00 27 1010.2
20260505194327 88 342 2.0 9.0 0.00 0.00 0.00 26 1010.3
20260505193824 88 123 2.0 9.0 0.00 0.00 0.00 24 1010.5
20260505193326 88 121 2.0 7.0 0.00 0.00 0.00 25 1010.6
20260505192857 88 327 1.0 7.0 0.00 0.00 0.00 26 1010.8
20260505192331 88 258 2.0 7.0 0.00 0.00 0.00 25 1010.7
20260505191831 87 12 2.0 7.0 0.00 0.00 0.00 27 1010.8
20260505191416 86 138 1.0 8.0 0.00 0.00 0.00 27 1010.9
20260505190900 86 162 3.0 8.0 0.00 0.00 0.00 27 1010.9
20260505190343 86 84 2.0 8.0 0.00 0.00 0.00 27 1011.0
20260505185839 86 333 2.0 6.0 0.00 0.00 0.00 27 1011.1
20260505185335 86 341 2.0 5.0 0.00 0.00 0.00 27 1011.2
20260505184848 86 24 1.0 8.0 0.00 0.00 0.00 27 1011.2
20260505184345 86 49 2.0 6.0 0.00 0.00 0.00 26 1011.3
20260505183855 86 249 1.0 6.0 0.00 0.00 0.00 28 1011.4
20260505183339 86 316 2.0 6.0 0.00 0.00 0.00 28 1011.5
20260505182844 86 128 1.0 8.0 0.00 0.00 0.00 27 1011.5
20260505182353 86 13 1.0 6.0 0.00 0.00 0.00 29 1011.6
20260505181844 86 265 2.0 6.0 0.00 0.00 0.00 27 1011.6
20260505181353 86 105 2.0 5.0 0.00 0.00 0.00 28 1011.6
20260505180908 86 349 1.0 5.0 0.00 0.00 0.00 30 1011.6
20260505180338 86 300 2.0 7.0 0.00 0.00 0.00 27 1011.6
20260505175855 85 196 2.0 7.0 0.00 0.00 0.00 29 1011.7
20260505175343 85 295 2.0 6.0 0.00 0.00 0.00 28 1011.8
20260505174840 85 63 2.0 8.0 0.00 0.00 0.00 28 1011.8
20260505174358 85 98 2.0 8.0 0.00 0.00 0.00 29 1011.9
20260505173846 85 74 1.0 7.0 0.00 0.00 0.00 29 1011.7
20260505173344 85 331 1.0 4.0 0.00 0.00 0.00 30 1011.8
20260505172840 86 349 1.0 4.0 0.00 0.00 0.00 31 1011.8
20260505172352 85 80 1.0 5.0 0.00 0.00 0.00 29 1011.7
20260505171853 85 96 1.0 5.0 0.00 0.00 0.00 32 1011.7
20260505171341 84 320 1.0 5.0 0.00 0.00 0.00 31 1011.8
20260505170837 84 307 2.0 7.0 0.00 0.00 0.00 30 1011.9
20260505170352 84 142 2.0 7.0 0.00 0.00 0.00 31 1012.0
20260505165904 84 259 1.0 5.0 0.00 0.00 0.00 31 1012.1
20260505165355 84 355 2.0 5.0 0.00 0.00 0.00 30 1012.1
20260505164853 83 65 1.0 5.0 0.00 0.00 0.00 31 1012.2
20260505164329 84 96 3.0 5.0 0.00 0.00 0.00 31 1012.3
20260505163829 84 19 1.0 5.0 0.00 0.00 0.00 32 1012.4
20260505163346 83 107 1.0 6.0 0.00 0.00 0.00 33 1012.4
20260505162835 84 51 1.0 5.0 0.00 0.00 0.00 34 1012.5
20260505162349 83 184 1.0 5.0 0.00 0.00 0.00 35 1012.5
20260505161839 83 36 2.0 5.0 0.00 0.00 0.00 34 1012.5
20260505161403 83 335 2.0 5.0 0.00 0.00 0.00 34 1012.6
20260505160850 82 55 1.0 5.0 0.00 0.00 0.00 35 1012.7
20260505160406 82 269 2.0 5.0 0.00 0.00 0.00 36 1012.8
20260505153346 81 27 3.0 5.0 0.00 0.00 0.00 37 1012.8
20260505152839 80 275 1.0 3.0 0.00 0.00 0.00 40 1012.8
20260505152335 80 94 1.0 3.0 0.00 0.00 0.00 38 1012.8
20260505151839 80 323 1.0 4.0 0.00 0.00 0.00 39 1012.8
20260505151415 80 322 2.0 5.0 0.00 0.00 0.00 39 1012.6
20260505150856 79 78 1.0 5.0 0.00 0.00 0.00 39 1012.8
20260505150342 79 91 1.0 6.0 0.00 0.00 0.00 42 1012.7
20260505140348 73 355 1.0 4.0 0.00 0.00 0.00 48 1013.0
20260505124853 67 68 2.0 4.0 0.00 0.00 0.00 57 1013.4
20260505124346 67 93 0.0 3.0 0.00 0.00 0.00 59 1013.4
20260505123845 66 80 0.0 4.0 0.00 0.00 0.00 59 1013.4
20260505123341 66 81 1.0 5.0 0.00 0.00 0.00 60 1013.3
20260505122911 65 48 1.0 3.0 0.00 0.00 0.00 60 1013.4
20260505122338 65 28 0.0 3.0 0.00 0.00 0.00 61 1013.3
20260505121839 64 20 0.0 2.0 0.00 0.00 0.00 62 1013.2
20260505121345 64 21 0.0 3.0 0.00 0.00 0.00 62 1013.1
20260505120856 64 273 1.0 3.0 0.00 0.00 0.00 62 1013.1
20260505120336 63 71 0.0 3.0 0.00 0.00 0.00 63 1013.1
20260505115831 63 72 0.0 3.0 0.00 0.00 0.00 63 1013.2
20260505115339 63 90 0.0 4.0 0.00 0.00 0.00 65 1013.1
20260505114834 63 298 1.0 4.0 0.00 0.00 0.00 64 1013.2
20260505114331 62 208 1.0 3.0 0.00 0.00 0.00 65 1013.1
20260505113831 62 36 0.0 5.0 0.00 0.00 0.00 65 1013.0
20260505113342 62 36 0.0 5.0 0.00 0.00 0.00 65 1012.9
20260505112828 62 59 0.0 3.0 0.00 0.00 0.00 66 1012.9
20260505112348 62 61 0.0 2.0 0.00 0.00 0.00 66 1012.8
20260505111847 61 123 1.0 4.0 0.00 0.00 0.00 66 1012.7
20260505111337 61 82 1.0 4.0 0.00 0.00 0.00 66 1012.7
20260505110846 61 87 0.0 4.0 0.00 0.00 0.00 67 1012.7
20260505110331 61 134 0.0 2.0 0.00 0.00 0.00 67 1012.7
20260505101840 60 96 1.0 2.0 0.00 0.00 0.00 67 1012.4
20260505101333 60 102 0.0 2.0 0.00 0.00 0.00 67 1012.3
20260505100849 60 103 0.0 3.0 0.00 0.00 0.00 67 1012.3
20260505100341 60 104 0.0 3.0 0.00 0.00 0.00 68 1012.2
20260505095833 60 105 0.0 2.0 0.00 0.00 0.00 68 1012.1
20260505095354 60 98 1.0 2.0 0.00 0.00 0.00 68 1012.0
20260505094841 60 133 0.0 2.0 0.00 0.00 0.00 68 1012.0
20260505094354 60 133 0.0 2.0 0.00 0.00 0.00 68 1012.1
20260505093858 60 88 0.0 2.0 0.00 0.00 0.00 67 1012.1
20260505093341 60 54 0.0 2.0 0.00 0.00 0.00 68 1012.1
20260505092841 60 54 0.0 2.0 0.00 0.00 0.00 68 1012.1
20260505092358 60 59 0.0 1.0 0.00 0.00 0.00 67 1012.0
20260505091842 61 59 0.0 2.0 0.00 0.00 0.00 67 1012.0
20260505091404 61 59 0.0 2.0 0.00 0.00 0.00 67 1012.0
20260505090837 61 340 0.0 2.0 0.00 0.00 0.00 66 1012.0
20260505090335 61 26 0.0 1.0 0.00 0.00 0.00 66 1011.9
20260505085840 61 25 0.0 1.0 0.00 0.00 0.00 66 1011.8
20260505085344 61 25 0.0 1.0 0.00 0.00 0.00 66 1011.9
20260505084846 61 25 0.0 1.0 0.00 0.00 0.00 66 1011.9
20260505084336 61 26 0.0 1.0 0.00 0.00 0.00 65 1011.8
20260505083917 62 24 0.0 3.0 0.00 0.00 0.00 65 1011.7
20260505083356 62 24 1.0 4.0 0.00 0.00 0.00 65 1011.7
20260505082835 62 336 0.0 4.0 0.00 0.00 0.00 65 1011.8
20260505082334 62 88 0.0 3.0 0.00 0.00 0.00 65 1011.8
20260505081838 62 88 0.0 3.0 0.00 0.00 0.00 65 1011.9
20260505081356 62 93 1.0 3.0 0.00 0.00 0.00 64 1011.9
20260505080842 62 89 0.0 2.0 0.00 0.00 0.00 64 1011.8
20260505080359 62 89 1.0 2.0 0.00 0.00 0.00 64 1011.8
20260505075839 62 89 1.0 2.0 0.00 0.00 0.00 64 1011.7
20260505075336 63 89 0.0 2.0 0.00 0.00 0.00 64 1011.7
20260505074914 63 89 1.0 3.0 0.00 0.00 0.00 64 1011.7
20260505074343 63 74 0.0 6.0 0.00 0.00 0.00 63 1011.6
20260505073849 63 84 1.0 6.0 0.00 0.00 0.00 63 1011.6
20260505073332 63 355 0.0 3.0 0.00 0.00 0.00 63 1011.4
20260505072846 63 65 1.0 3.0 0.00 0.00 0.00 62 1011.4
20260505072337 63 229 1.0 4.0 0.00 0.00 0.00 63 1011.4
20260505071836 63 143 1.0 4.0 0.00 0.00 0.00 63 1011.4
20260505071337 63 78 1.0 4.0 0.00 0.00 0.00 63 1011.3
20260505070847 63 78 1.0 4.0 0.00 0.00 0.00 63 1011.4
20260505070352 63 71 1.0 2.0 0.00 0.00 0.00 62 1011.4
20260505065842 63 71 0.0 2.0 0.00 0.00 0.00 62 1011.3
20260505065344 64 74 0.0 4.0 0.00 0.00 0.00 62 1011.4
20260505064830 64 75 0.0 4.0 0.00 0.00 0.00 62 1011.4
20260505064332 64 59 1.0 3.0 0.00 0.00 0.00 62 1011.4
20260505063858 64 78 1.0 3.0 0.00 0.00 0.00 61 1011.4
20260505063340 64 65 1.0 3.0 0.00 0.00 0.00 61 1011.4
20260505062854 64 234 1.0 3.0 0.00 0.00 0.00 61 1011.5
20260505062328 64 15 1.0 4.0 0.00 0.00 0.00 61 1011.5
20260505061845 64 331 1.0 4.0 0.00 0.00 0.00 61 1011.4
20260505061343 64 82 0.0 3.0 0.00 0.00 0.00 61 1011.5
20260505060838 65 77 0.0 6.0 0.00 0.00 0.00 61 1011.5
20260505060333 65 77 1.0 6.0 0.00 0.00 0.00 60 1011.5
20260505055834 65 360 0.0 5.0 0.00 0.00 0.00 61 1011.4
20260505055337 65 355 2.0 5.0 0.00 0.00 0.00 60 1011.4
20260505054910 65 41 1.0 6.0 0.00 0.00 0.00 61 1011.6
20260505054335 65 82 1.0 6.0 0.00 0.00 0.00 60 1011.6
20260505053858 65 87 1.0 5.0 0.00 0.00 0.00 61 1011.7
20260505053350 65 88 2.0 5.0 0.00 0.00 0.00 61 1011.6
20260505052844 65 123 0.0 3.0 0.00 0.00 0.00 60 1011.6
20260505052401 65 124 1.0 5.0 0.00 0.00 0.00 60 1011.5
20260505051839 65 307 1.0 5.0 0.00 0.00 0.00 60 1011.5
20260505051407 65 92 1.0 6.0 0.00 0.00 0.00 60 1011.7
20260505050845 65 271 1.0 4.0 0.00 0.00 0.00 60 1011.6
20260505050349 65 40 1.0 4.0 0.00 0.00 0.00 59 1011.4